Simultaneous Nadir Overpasses (SNOs) Predictions

Prediction of SNOs between LANDSAT-8 and NOAA-19 Satellite Orbit:

Table of predicted SNOs for the next 14.0 days since TLE Epoch: 9/26/2020
Index Date (LANDSAT-8) Time (LANDSAT-8) Lat,Lon (LANDSAT-8) SZA (LANDSAT-8 ) Date (NOAA-19) Time (NOAA-19) Lat,Lon (NOAA-19) SZA (NOAA-19 ) Distance(km) Time Diff (sec)
1 09/26/2020 22:40:52 -79.97, 47.21 97.06 09/26/2020 22:39:49 -79.97, 47.14 97.08 1.53 63
2 09/26/2020 23:30:19 79.94,-145.41 82.91 09/26/2020 23:30:54 79.96,-145.47 82.94 3.03 35
3 09/29/2020 05:04:03 -79.97, -48.55 96.15 09/29/2020 05:04:04 -79.96, -48.67 96.17 2.59 1
4 10/01/2020 10:37:47 79.97, 47.99 84.72 10/01/2020 10:37:24 79.97, 48.03 84.72 0.82 23
5 10/01/2020 11:27:15 -79.94,-144.62 95.32 10/01/2020 11:28:19 -79.95,-144.49 95.27 2.85 64
6 10/03/2020 16:11:32 -79.97, 144.56 94.41 10/03/2020 16:10:35 -79.97, 144.72 94.41 3.18 57
7 10/03/2020 17:00:58 79.97, -47.82 85.61 10/03/2020 17:01:39 79.96, -47.92 85.61 1.93 41
8 10/05/2020 22:34:43 -79.97, 48.73 93.53 10/05/2020 22:34:50 -79.96, 48.89 93.51 2.98 7
9 10/08/2020 04:08:26 79.99, 145.47 87.37 10/08/2020 04:08:09 79.98, 145.45 87.36 0.84 17
